SC

 

 

Sooner Challenge OLR - Loft fly

Station: LOFT TRAINER - T Race

Distance: 1 Miles    

Release: 22-Sep-2022 00:00

Weather Release:    Arrival:

Wind at Release:     Wind at Arrival:

Temp at Release: °    Temp at Arrival: °

Lofts: 97

Birds: 325

Clocked: 328

Good Luck to Everyone!
Drops Pos Breeder Pigeon Name Color Sex Ent Arrival Speed To Win Elg PdSprintAOCPick
1 Liu s Loft - MO 0645-AU22-BAIZ CKWF H 1 08:38:54.50 3.392 00:00:00 Yes
2 Warren Loft - NE 0596-AU22-WARR BB H 1 08:40:01.75 3.384 00:01:14 Yes
3 Taylor Loft - NM 22201-AU22-NMRP Cyborg BBWF H 1 08:40:40.77 3.380 00:01:51 Yes
4 Kolvenbag & Son - PA 1683-IF22-KOLV CK H 1 08:41:42.78 3.374 00:02:46 Yes
5 Bruce Daehn - FL 0224-AU22-NWFI 409x21650 CKWF H 1 08:41:48.84 3.373 00:02:55 Yes
6 Bert Worth USA Loft - OK 5021-AU22-USA CK H 1 08:43:49.09 3.360 00:04:56 Yes
7 Taiwan Loft - TX 0054-AU22-FORM CK H 1 08:46:01.83 3.346 00:07:08 Yes
8 Teal Family Loft #1 - OK 2521-AU22-ADA CK H 1 08:51:35.83 3.311 00:12:42 Yes
9 Dickson Loft - OK 0400-AU22-DICK RDGR H 1 08:57:43.46 3.273 00:18:52 Yes
9 A P C Loft - TX 22378-AU22-APC BB H 1 08:57:48.45 3.273 00:18:52 Yes
11 Five Oaks Loft - VA 0067-AU22-FOL BBWF H 1 09:02:46.30 3.243 00:23:50 Yes
12 Malone Family Loft - IL 0713-AU22-MALO "Chesty II" DKCK H 1 09:02:55.89 3.242 00:24:00 Yes
13 C F L - LA 2049-AU22-CFL CK H 1 09:05:09.76 3.228 00:26:22 Yes
14 Joe Zarachowicz - MD 0579-IF22-CCC GRZL H 1 09:08:38.61 3.208 00:29:46 Yes
15 Ken Easley & Son Racing - NM 0034-AU22-EASL Drum Stick BB H 1 09:10:46.53 3.195 00:32:00 Yes
16 Redlegs Loft - PA 1654-IF22-FOYS Green Eyed Mona BBWF H 1 09:11:44.44 3.190 00:32:51 Yes
17 4 Broke Lofts - MO 2522-AU22-NERP JS EXPRESS BB H 1 09:13:36.82 3.179 00:34:46 Yes
18 Travis Boatman - MI 34622-AU22-JEDD BBWF H 1 09:13:44.00 3.178 00:34:56 Yes
19 Columba Loft - GA 2391-AU22-LYNC BB H 1 09:14:16.22 3.175 00:35:28 Yes
20 Shirey Loft - PA 0223-IF22-HBG CKWF H 1 09:14:28.14 3.174 00:35:38 Yes
21 Rick Barker - CA 0144-AU22-VIP SILV H 1 09:15:52.17 3.166 00:37:02 Yes
22 Family Loft - IN 0095-AU22-FAMI BB H 1 09:17:03.13 3.159 00:38:16 Yes
23 Five Oaks Loft - VA 0002-AU22-FOL BB H 2 09:17:22.06 3.158 00:38:27 Yes
24 Kolvenbag & Son - PA 1648-IF22-KOLV CK H 2 09:18:08.38 3.153 00:39:20 Yes
25 Rick Barker - CA 0138-AU22-VIP BB H 2 09:19:18.25 3.147 00:40:24 Yes
26 Bruce Daehn - FL 0241-AU22-NWFI 137x590 CK H 2 09:19:33.04 3.145 00:40:45 Yes
26 Czechura Loft - IL 8668-AU22-CHIC CK H 1 09:19:41.83 3.145 00:40:45 Yes
28 Peach Classic - GA 15621-AU22-FOYS SOONER BE HERE CK H 1 09:19:48.44 3.144 00:40:56 Yes
29 Riverside Loft - NJ 1111-IF22-WVC 5008/21346 BB H 1 09:20:58.22 3.137 00:42:11 Yes
30 Lone Oak Loft - TX 2216-AU22-LOL Sonny-Rose-4 BB H 1 09:21:12.48 3.136 00:42:21 Yes
30 Callahan Loft - MO 22189-AU22-AA CK H 1 09:21:13.09 3.136 00:42:21 Yes
32 Wartick Family Loft - KS 19547-AU22-ARPU BB H 1 09:22:10.76 3.131 00:43:15 Yes
33 Dickson Loft - OK 0410-AU22-DICK OPAL H 2 09:22:59.90 3.126 00:44:09 Yes
34 Bert Worth USA Loft - OK 0407-IF22-USA BB H 2 09:23:29.73 3.123 00:44:42 Yes
35 Little Reata Loft - TX 21607-AU22-JETT CKWF H 1 09:23:44.49 3.122 00:44:52 Yes
36 Mike Hines - SD 2127-AU22-GPF Liberty CK H 1 09:24:07.47 3.120 00:45:14 Yes
37 Wartick Family Loft - KS 19556-AU22-ARPU CKWF H 2 09:24:25.42 3.118 00:45:36 Yes
38 House Of Paine - CA 0726-AU22-HOP GSF1897xGSF179 BB H 1 09:25:02.47 3.115 00:46:08 Yes
39 Family Loft - IN 0099-AU22-FAM BB H 2 09:25:06.07 3.114 00:46:19 Yes
40 Little Reata Loft - TX 21628-AU22-JETT CKWF H 2 09:25:42.20 3.111 00:46:52 Yes
41 Cajun Express Loft - LA 0841-AU22-MVS BBWF H 1 09:25:50.39 3.110 00:47:03 Yes
42 Bruce Daehn - FL 0229-AU22-NWFI 158xnabb BB H 3 09:26:53.98 3.105 00:47:58 Yes
43 4 Broke Lofts - MO 2011-AU22-NERP JADE CK H 2 09:28:19.54 3.097 00:49:25 Yes
44 Holts Loft - NC 0908-AU22-HOLT BB H 1 09:28:27.49 3.096 00:49:36 Yes
45 Shirey Loft - PA 0227-IF22-HBG BB H 2 09:29:11.31 3.092 00:50:21 Yes
46 Peach Classic - GA 15622-AU22-FOYS RED BUD BB H 2 09:29:37.67 3.090 00:50:43 Lost
47 Lone Oak Loft - TX 2218-AU22-LOL Ace-Soonie-4 BB H 2 09:29:55.65 3.088 00:51:05 Yes
48 Van Den Bossche Brothers - ME 0259-IF22-VDB Ccc280/Ccc344 - Happy GRZL H 1 09:30:17.68 3.086 00:51:27 Lost
49 Liu s Loft - MO 0646-AU22-BAIZ BBWF H 2 09:30:32.84 3.085 00:51:38 Lost
50 Untouchable Syndicate - KS 12920-AU22-WFPF BB H 1 09:30:49.60 3.083 00:52:00 Yes
51 Kelly Ward - IN 0096-AU22-FAMI CKWF H 1 09:31:00.15 3.082 00:52:11 Yes
51 Liberty Loft - MA 26826-AU22-FOYS BB H 1 09:31:04.56 3.082 00:52:11 Yes
53 Peach Classic - GA 0874-AU22-PETE Casper WHIT H 3 09:31:17.32 3.081 00:52:23 Yes
54 C F L - LA 2047-AU22-CFL BBWF H 2 09:31:28.90 3.080 00:52:34 Yes
55 4 Broke Lofts - MO 0107-AU22-MRPC “MOUNTAIN MAN” GRZL H 3 09:32:03.14 3.077 00:53:07 Yes
56 Mike Hines - SD 2120-AU22-GPF Violet CK H 2 09:32:16.91 3.075 00:53:29 Yes
57 Silvercreek-Thompson - NM 77706-AU22-THOM Gunsmoke CKWF H 1 09:32:55.56 3.072 00:54:03 Yes
58 Adams Loft - PA 2227-AU22-NEL BB H 1 09:33:30.36 3.069 00:54:37 Yes
58 Warren Loft - NE 0607-AU22-WARR CKWF H 2 09:33:32.00 3.069 00:54:37 Yes
60 Bionic Loft - LA 0223-AU22-CAJU BB H 1 09:34:24.74 3.064 00:55:33 Yes
61 Ken Easley & Son Racing - NM 0030-AU22-EASL Snow Cone BB H 2 09:34:45.42 3.062 00:55:55 Yes
62 Parker's Loft - KY 48501-AU22-ARPU CK H 1 09:35:17.28 3.059 00:56:29 Yes
63 4 Broke Lofts - MO 2008-AU22-NERP LUDOCRIS CK H 4 09:35:58.84 3.056 00:57:03 Yes
64 Taiwan Loft - TX 0026-AU22-FORM CK H 2 09:36:11.36 3.055 00:57:14 Yes
65 Easley - Farr - NM 0016-AU22-EASL CK H 1 09:36:16.44 3.054 00:57:26 Yes
66 Ken Easley - Pipa Elite Center - BE 0083-AU22-EASL BBWF H 1 09:36:53.09 3.051 00:58:00 Yes
67 Rueter Family Loft - OR 1158-AU22-CORP BBWF H 1 09:36:57.62 3.050 00:58:11 Yes
68 Ken Easley & Son Racing - NM 0091-AU22-EASL Banana Split BB H 3 09:37:16.73 3.049 00:58:22 Yes
69 Blue Thistle Ranch - OK 71444-AU22-ARPU BB H 1 09:37:21.39 3.048 00:58:34 Yes
70 4 Broke Lofts - MO 2007-AU22-NERP BERONG CK H 5 09:37:37.69 3.047 00:58:45 Yes
71 Bruce Daehn - FL 0245-AU22-NWFI 158xnabb CKWF C 4 09:37:56.77 3.045 00:59:08 Yes
72 Flying D Loft - TX 1686-IF22-FLYD Flyd 551 = Ewa 158 BB H 1 09:38:20.78 3.043 00:59:31 Yes
72 Moss Loft - TX 0136-AU22-MOSS Native Diver DKCK H 1 09:38:21.88 3.043 00:59:31 Yes
74 Ken Easley & Son Racing - NM 0075-AU22-EASL Blue Bell BB H 4 09:38:33.33 3.042 00:59:42 Yes
75 Malone Family Loft - IL 0992-AU22-MALO "Jersey White" WHIT H 2 09:38:55.05 3.040 01:00:05 Yes
76 Little Reata Loft - TX 21626-AU22-JETT ANDL H 3 09:39:25.74 3.037 01:00:39 Yes
76 4 Broke Lofts - MO 0312-AU22-JEDD BB H 6 09:39:34.73 3.037 01:00:39 Yes
76 Taiwan Loft - TX 0049-AU22-FORM BB H 3 09:39:35.09 3.037 01:00:39 Yes
79 One Oak - LA 6336-AU22-ARPU 3 BB H 1 09:39:45.50 3.036 01:00:51 Yes
79 R & D Racing 2 - ON 18938-AU22-JEDD BBWF H 1 09:39:47.33 3.036 01:00:51 Yes
81 Vwl - SC 63741-AU22-ARPU BB H 1 09:40:06.23 3.034 01:01:13 Yes
81 Family Loft - IN 0118-AU22-FAMI BB H 3 09:40:07.94 3.034 01:01:13 Yes
81 Untouchable Syndicate - KS 12914-AU22-WFPF BB H 2 09:40:08.17 3.034 01:01:13 Yes
84 Easley - Farr - NM 0099-AU22-EASL CK H 2 09:40:13.35 3.033 01:01:25 Yes
85 Adams Loft - PA 2259-AU22-NEL BBWF H 2 09:40:25.40 3.032 01:01:36 Yes
85 Andy Owen - GA 0251-AU22-AOWE BB H 1 09:40:28.01 3.032 01:01:36 Yes
85 C F L - LA 2044-AU22-CFL BB H 3 09:40:32.85 3.032 01:01:36 Yes
88 Easley - Farr - NM 0100-AU22-EASL CK H 3 09:40:47.45 3.030 01:01:59 Yes
88 VicstromLoft - UT 2237-AU22-WICK WICK 37 BB C 1 09:40:48.88 3.030 01:01:59 Yes
88 PNWC - ID 2176-AU22-PNWC “PAIR 44” CKWF H 1 09:40:56.42 3.030 01:01:59 Yes
91 A P C Loft - TX 22386-AU22-APC GRZL H 2 09:41:42.54 3.026 01:02:45 Lost
92 C F L - LA 2041-AU22-CFL BB H 4 09:41:55.82 3.024 01:03:09 Yes
92 VicstromLoft - UT 2222-AU22-WICK WICK 22 BBSP H 2 09:41:57.81 3.024 01:03:09 Yes
94 Franklin Brothers Loft - OH 0437-AU22-IHC SILV H 1 09:42:45.20 3.020 01:03:55 Yes
95 GreatWall - MS 2214-AU22-JIMM SILV H 1 09:43:07.75 3.018 01:04:18 Yes
95 Feathers Rest Loft - GA 0407-AU22-MEGA BB H 1 09:43:14.92 3.018 01:04:18 Yes
97 Liberty Loft - MA 26866-AU22-FOYS BB H 2 09:43:19.52 3.017 01:04:30 Yes
98 Ken Easley - Pipa Elite Center - BE 0020-AU22-EASL BB H 2 09:45:21.00 3.007 01:06:26 Yes
99 Lone Oak Loft - TX 2219-AU22-LOL Carl-Kitty-3 BBWF H 3 09:48:09.69 2.992 01:09:22 Yes
100 Moss Loft - TX 0143-AU22-MOSS Top Flight BB H 2 09:49:20.10 2.986 01:10:33 Yes

There are 328 bird records

Note: These Race Results are unofficial and subject to change until verified by the Race Committee and declared final.